Weather History for Klamath Falls, OR

Change the Weather History Date:

Saturday, September 15, 2012

  Actual Average Record
Temperature  
Mean Temperature 62 °F 58 °F  
Max Temperature 83 °F 76 °F 93 °F (1981)
Min Temperature 41 °F 39 °F 26 °F (1970)
Degree Days  
Heating Degree Days 3 7  
Month to date heating degree days 47 88  
Since 1 July heating degree days 127 207  
Cooling Degree Days 0 0  
Month to date cooling degree days 2 9  
Year to date cooling degree days 177 168  
Growing Degree Days 12 (Base 50)    
Moisture  
Dew Point 40 °F    
Average Humidity 51    
Maximum Humidity 89    
Minimum Humidity 13    
Precipitation  
Precipitation 0.00 in 0.01 in 0.57 in (1996)
Month to date precipitation 0.00 0.28  
Year to date precipitation 6.12 10.02  
Sea Level Pressure  
Sea Level Pressure 30.08 in    
Wind  
Wind Speed 4 mph (NNW)    
Max Wind Speed 20 mph    
Max Gust Speed 23 mph    
Visibility 10 miles    
Events      
T = Trace of Precipitation, MM = Missing Value Source: NWS Daily Summary

Daily Weather History Graph

Daily Weather History Graph

Search for Another Location

Airport:

Trip Planner

Search our weather history database for the weather conditions in past years. The results will help you decide how hot, cold, wet, or windy it might be!

Date:

Astronomy

Sep. 15, 2012 Rise Set
Actual Time 6:47 AM PDT 7:15 PM PDT
Civil Twilight 6:19 AM PDT 7:43 PM PDT
Nautical Twilight 5:46 AM PDT 8:16 PM PDT
Astronomical Twilight 5:12 AM PDT 8:50 PM PDT
Moon 6:25 AM PDT (9/15) 6:47 PM PDT (9/15)
Length of Visible Light 13h 24m
Length of Day
12h 27m
Waning Crescent, 0% of the Moon is Illuminated
Sep 15
Waning Crescent
Sep 15
New
Sep 22
First Quarter
Sep 29
Full
Oct 8
Last Quarter

Hourly Weather History & Observations

Time (PDT) Temp. Dew Point Humidity Pressure Visibility Wind Dir Wind Speed Gust Speed Precip Events Conditions
12:53 AM 53.1 °F 42.1 °F 66% 30.07 in 3.0 mi Calm Calm - N/A   Haze
1:53 AM 51.1 °F 42.1 °F 71% 30.07 in 10.0 mi Calm Calm - N/A   Clear
2:53 AM 46.0 °F 39.0 °F 76% 30.07 in 10.0 mi Calm Calm - N/A   Clear
3:53 AM 45.0 °F 39.0 °F 80% 30.08 in 10.0 mi Calm Calm - N/A   Clear
4:53 AM 46.0 °F 39.9 °F 79% 30.08 in 10.0 mi Calm Calm - N/A   Clear
5:53 AM 44.1 °F 41.0 °F 89% 30.09 in 10.0 mi Calm Calm - N/A   Clear
6:00 AM 42.8 °F 39.2 °F 87% 30.18 in 10.0 mi Calm Calm - N/A   Clear
6:53 AM 43.0 °F 39.9 °F 89% 30.11 in 10.0 mi Calm Calm - N/A   Partly Cloudy
7:53 AM 50.0 °F 42.1 °F 74% 30.12 in 10.0 mi Calm Calm - N/A   Partly Cloudy
8:53 AM 57.9 °F 43.0 °F 58% 30.12 in 10.0 mi East 3.5 mph - N/A   Partly Cloudy
9:53 AM 64.9 °F 45.0 °F 48% 30.12 in 10.0 mi Calm Calm - N/A   Partly Cloudy
10:53 AM 70.0 °F 43.0 °F 38% 30.12 in 10.0 mi Calm Calm - N/A   Partly Cloudy
11:53 AM 73.9 °F 43.0 °F 33% 30.11 in 10.0 mi Calm Calm - N/A   Partly Cloudy
12:53 PM 78.1 °F 39.0 °F 25% 30.09 in 10.0 mi Variable 3.5 mph - N/A   Partly Cloudy
1:53 PM 80.1 °F 33.1 °F 18% 30.06 in 10.0 mi Variable 3.5 mph - N/A   Partly Cloudy
2:53 PM 81.0 °F 34.0 °F 18% 30.05 in 10.0 mi Variable 3.5 mph - N/A   Partly Cloudy
3:53 PM 82.9 °F 30.9 °F 15% 30.03 in 10.0 mi NW 6.9 mph - N/A   Partly Cloudy
4:53 PM 82.0 °F 27.0 °F 13% 30.03 in 10.0 mi West 10.4 mph - N/A   Partly Cloudy
5:53 PM 80.1 °F 37.9 °F 22% 30.02 in 10.0 mi NNW 18.4 mph 23.0 mph N/A   Partly Cloudy
6:53 PM 75.9 °F 37.0 °F 24% 30.04 in 10.0 mi NNW 9.2 mph - N/A   Clear
7:53 PM 70.0 °F 39.9 °F 33% 30.05 in 10.0 mi NNW 9.2 mph - N/A   Clear
8:53 PM 68.0 °F 44.1 °F 42% 30.06 in 10.0 mi NW 9.2 mph - N/A   Clear
9:53 PM 64.0 °F 44.1 °F 48% 30.07 in 10.0 mi Calm Calm - N/A   Clear
10:53 PM 63.0 °F 45.0 °F 52% 30.08 in 10.0 mi NNW 6.9 mph - N/A   Clear
11:53 PM 54.0 °F 43.0 °F 66% 30.09 in 10.0 mi Calm Calm - N/A   Clear